This demonstration page uses our WeatherBlox Daily Observations layout. Learn more.

36.17497, -115.13722

Hourly Observations for February 19, 2015

Temp ( °F °C ) Dew Point ( °F °C ) Humidity (%) Winds ( mph kmh ) Pressure ( in mb ) Visibility ( mi km ) Precip ( " mm )
12:53 am 00:53 Clear 54 12.2 22 -5.6 29 29 W 3 6 30.14 1021 10 16.0934 0 0
1:53 am 01:53 Clear 51 10.6 22 -5.6 32 32 Calm 30.14 1021 10 16.0934 0 0
2:53 am 02:53 Clear 53 11.7 21 -6.1 28 28 NW 6 9 30.12 1020 10 16.0934 0 0
3:53 am 03:53 Clear 51 10.6 21 -6.1 31 31 WNW 5 7 30.13 1020 10 16.0934 0 0
4:53 am 04:53 Clear 50 10 21 -6.1 32 32 NNW 3 6 30.13 1020 10 16.0934 0 0
5:53 am 05:53 Clear 50 10 22 -5.6 33 33 WNW 5 7 30.14 1021 10 16.0934 0 0
6:53 am 06:53 Sunny 50 10 23 -5 35 35 Calm 30.15 1021 10 16.0934 0 0
7:53 am 07:53 Sunny 52 11.1 26 -3.3 37 37 NNW 5 7 30.17 1022 10 16.0934 0 0
8:53 am 08:53 Sunny 56 13.3 23 -5 28 28 Calm 30.18 1022 10 16.0934 0 0
9:53 am 09:53 Sunny 62 16.7 20 -6.7 20 20 Calm 30.16 1021 10 16.0934 0 0
10:53 am 10:53 Sunny 64 17.8 18 -7.8 17 17 SSE 3 6 30.14 1021 10 16.0934 0 0
11:53 am 11:53 Sunny 67 19.4 14 -10 13 13 VRB 3 6 30.11 1020 10 16.0934 0 0
12:53 pm 12:53 Sunny 70 21.1 13 -10.6 11 11 ESE 6 9 30.07 1018 10 16.0934 0 0
1:53 pm 13:53 Sunny 71 21.7 14 -10 11 11 SE 7 11 30.04 1017 10 16.0934 0 0
2:53 pm 14:53 Sunny 72 22.2 15 -9.4 11 11 Calm 30.01 1016 10 16.0934 0 0
3:53 pm 15:53 Sunny 73 22.8 15 -9.4 11 11 SE 3 6 30 1016 10 16.0934 0 0
4:53 pm 16:53 Sunny 71 21.7 16 -8.9 12 12 SSE 3 6 29.99 1016 10 16.0934 0 0
5:53 pm 17:53 Clear 69 20.6 18 -7.8 14 14 Calm 30 1016 10 16.0934 0 0
6:53 pm 18:53 Clear 65 18.3 19 -7.2 17 17 Calm 30.02 1017 10 16.0934 0 0
7:53 pm 19:53 Clear 60 15.6 23 -5 24 24 NNW 3 6 30.02 1017 10 16.0934 0 0
8:53 pm 20:53 Clear 58 14.4 25 -3.9 28 28 NW 6 9 30.01 1016 10 16.0934 0 0
9:53 pm 21:53 Clear 57 13.9 25 -3.9 29 29 NNW 7 11 30 1016 10 16.0934 0 0
10:53 pm 22:53 Clear 55 12.8 25 -3.9 31 31 NW 6 9 29.99 1016 10 16.0934 0 0
11:53 pm 23:53 Clear 54 12.2 26 -3.3 34 34 WNW 5 7 29.99 1016 10 16.0934 0 0

Powered by AerisWeather